Tracking 29093 objects as of 15-Jul-2024
HD Live streaming from Space Station
objects crossing your sky now

STARLINK-30877

Track STARLINK-30877 now!
10-day predictions
STARLINK-30877 is classified as:


NORAD ID: 58242
Int'l Code: 2023-171N
Perigee: 565.1 km
Apogee: 567.3 km
Inclination: 43.0 °
Period: 95.8 minutes
Semi major axis: 6937 km
RCS: Unknown
Launch date: November 8, 2023
Source: United States (US)
Launch site: AIR FORCE EASTERN TEST RANGE (AFETR)
Your satellite tracking list
Your tracking list is empty




NASA's NSSDC Master Catalog

Two Line Element Set (TLE):
1 58242U 23171N   24196.05261713  .00000653  00000-0  63395-4 0  9996
2 58242  43.0045 325.9073 0001586 267.3084  92.7577 15.02535853 38924
Source of the keplerian elements: AFSPC